{"data":{"norad_id":37224,"epoch":"2026-09-18T14:36:22.334976Z","epoch_age_seconds":178080,"freshness":"STALE","line1":"1 37224U 10062C   26261.60859184  .00001582  00000+0  15374-3 0  9993","line2":"2 37224  71.9686 228.6645 0016487 250.1883 109.7510 14.94047704130594","mean_motion":14.94047704,"eccentricity":0.0016487,"inclination_deg":71.9686,"raan_deg":228.6645,"arg_perigee_deg":250.1883,"mean_anomaly_deg":109.751,"bstar":0.00015374,"rev_number":13059,"period_min":96.382464639161,"perigee_km":573.84949018831,"apogee_km":596.81082679672,"semimajor_km":6963.4671584925,"source":"CELESTRAK","updated_at":"2026-09-20T09:00:45.231458Z"}}